Time,TemperatureF,DewpointF,PressureIn,WindDirection,WindDirectionDegrees,WindSpeedMPH,WindSpeedGustMPH,Humidity,HourlyPrecipIn,Conditions,Clouds,dailyrainin,SoftwareType,DateUTC
2013-09-27 00:12:00,59.0,53.0,29.82,North,356,0.0,2.0,80,0.00,,,0.00,,2013-09-27 05:12:00,
2013-09-27 00:23:00,58.0,53.0,29.82,NNE,20,0.0,1.0,82,0.00,,,0.00,,2013-09-27 05:23:00,
2013-09-27 00:43:00,58.0,53.0,29.82,North,9,1.0,3.0,82,0.00,,,0.00,,2013-09-27 05:43:00,
2013-09-27 00:52:00,57.0,52.0,29.83,North,356,0.0,2.0,82,0.00,,,0.00,,2013-09-27 05:52:00,
2013-09-27 01:11:00,57.0,52.0,29.83,NNW,331,1.0,4.0,82,0.00,,,0.00,,2013-09-27 06:11:00,
2013-09-27 01:22:00,57.0,50.0,29.83,NW,325,4.0,8.0,78,0.00,,,0.00,,2013-09-27 06:22:00,
2013-09-27 01:43:00,57.0,50.0,29.84,NW,316,2.0,7.0,78,0.00,,,0.00,,2013-09-27 06:43:00,
2013-09-27 01:52:00,56.0,50.0,29.84,NW,316,2.0,8.0,79,0.00,,,0.00,,2013-09-27 06:52:00,
2013-09-27 02:12:00,56.0,50.0,29.85,NNW,330,3.0,7.0,80,0.00,,,0.00,,2013-09-27 07:12:00,
2013-09-27 02:22:00,56.0,49.0,29.85,NNW,327,1.0,4.0,78,0.00,,,0.00,,2013-09-27 07:22:00,
2013-09-27 02:43:00,56.0,49.0,29.85,WNW,295,1.0,3.0,78,0.00,,,0.00,,2013-09-27 07:43:00,
2013-09-27 02:53:00,56.0,49.0,29.85,NNW,335,1.0,4.0,77,0.00,,,0.00,,2013-09-27 07:53:00,
2013-09-27 03:11:00,56.0,48.0,29.85,NE,36,2.0,4.0,75,0.00,,,0.00,,2013-09-27 08:11:00,
2013-09-27 03:22:00,56.0,47.0,29.85,NNW,337,2.0,4.0,73,0.00,,,0.00,,2013-09-27 08:22:00,
2013-09-27 03:42:00,56.0,47.0,29.85,NNW,342,1.0,4.0,73,0.00,,,0.00,,2013-09-27 08:42:00,
2013-09-27 03:52:00,56.0,47.0,29.85,North,359,1.0,2.0,73,0.00,,,0.00,,2013-09-27 08:52:00,
2013-09-27 04:12:00,55.0,47.0,29.84,North,350,1.0,4.0,74,0.00,,,0.00,,2013-09-27 09:12:00,
2013-09-27 04:22:00,55.0,47.0,29.85,NW,305,0.0,4.0,74,0.00,,,0.00,,2013-09-27 09:22:00,
2013-09-27 04:44:00,55.0,47.0,29.84,NNW,328,0.0,3.0,75,0.00,,,0.00,,2013-09-27 09:44:00,
2013-09-27 04:53:00,54.0,47.0,29.84,NNE,19,0.0,4.0,76,0.00,,,0.00,,2013-09-27 09:53:00,
2013-09-27 05:13:00,54.0,47.0,29.83,North,11,2.0,4.0,77,0.00,,,0.00,,2013-09-27 10:13:00,
2013-09-27 05:23:00,54.0,47.0,29.82,NE,39,1.0,4.0,78,0.00,,,0.00,,2013-09-27 10:23:00,
2013-09-27 05:42:00,54.0,47.0,29.82,NW,308,2.0,5.0,76,0.00,,,0.00,,2013-09-27 10:42:00,
2013-09-27 05:52:00,54.0,47.0,29.84,NW,323,1.0,3.0,78,0.01,,,0.01,,2013-09-27 10:52:00,
2013-09-27 06:12:00,53.0,48.0,29.84,NW,317,2.0,4.0,84,0.07,,,0.07,,2013-09-27 11:12:00,
2013-09-27 06:22:00,51.0,48.0,29.81,NW,311,2.0,6.0,88,0.10,,,0.10,,2013-09-27 11:22:00,
2013-09-27 06:43:00,51.0,48.0,29.81,NNW,348,4.0,6.0,89,0.10,,,0.10,,2013-09-27 11:43:00,
2013-09-27 06:52:00,51.0,48.0,29.85,WNW,302,1.0,4.0,89,0.08,,,0.10,,2013-09-27 11:52:00,
2013-09-27 07:12:00,51.0,48.0,29.83,NNW,329,1.0,4.0,89,0.03,,,0.10,,2013-09-27 12:12:00,
2013-09-27 07:21:00,51.0,48.0,29.83,WNW,302,1.0,4.0,89,0.00,,,0.10,,2013-09-27 12:21:00,
2013-09-27 07:42:00,51.0,48.0,29.82,NW,308,2.0,4.0,88,0.00,,,0.10,,2013-09-27 12:42:00,
2013-09-27 07:52:00,51.0,48.0,29.84,West,262,1.0,7.0,88,0.00,,,0.10,,2013-09-27 12:52:00,
2013-09-27 08:11:00,50.0,47.0,29.84,WNW,295,3.0,5.0,89,0.09,,,0.19,,2013-09-27 13:11:00,
2013-09-27 08:22:00,50.0,47.0,29.85,NW,307,3.0,5.0,89,0.13,,,0.23,,2013-09-27 13:22:00,
2013-09-27 08:52:00,50.0,47.0,29.84,NW,325,2.0,4.0,91,0.16,,,0.26,,2013-09-27 13:52:00,
2013-09-27 09:11:00,50.0,48.0,29.83,NW,305,1.0,3.0,92,0.08,,,0.27,,2013-09-27 14:11:00,
2013-09-27 09:22:00,50.0,48.0,29.84,NNW,328,3.0,8.0,92,0.05,,,0.28,,2013-09-27 14:22:00,
2013-09-27 09:52:00,50.0,48.0,29.83,WNW,301,5.0,9.0,92,0.02,,,0.28,,2013-09-27 14:52:00,
2013-09-27 10:11:00,50.0,48.0,29.83,NW,309,6.0,11.0,92,0.01,,,0.28,,2013-09-27 15:11:00,
2013-09-27 10:21:00,50.0,48.0,29.83,NW,323,2.0,9.0,93,0.00,,,0.28,,2013-09-27 15:21:00,
2013-09-27 10:54:00,50.0,48.0,29.83,NNW,329,2.0,8.0,92,0.00,,,0.28,,2013-09-27 15:54:00,
2013-09-27 11:13:00,50.0,48.0,29.82,North,352,2.0,6.0,92,0.00,,,0.28,,2013-09-27 16:13:00,
2013-09-27 11:24:00,51.0,48.0,29.81,NNW,337,4.0,7.0,91,0.00,,,0.28,,2013-09-27 16:24:00,
2013-09-27 11:53:00,51.0,48.0,29.82,NNW,328,2.0,7.0,91,0.00,,,0.28,,2013-09-27 16:53:00,
2013-09-27 12:13:00,51.0,48.0,29.82,NNW,329,1.0,5.0,91,0.00,,,0.28,,2013-09-27 17:13:00,
2013-09-27 12:23:00,51.0,48.0,29.81,NW,322,3.0,7.0,91,0.00,,,0.28,,2013-09-27 17:23:00,
2013-09-27 12:43:00,51.0,49.0,29.81,North,358,2.0,7.0,92,0.00,,,0.28,,2013-09-27 17:43:00,
2013-09-27 12:52:00,51.0,49.0,29.81,NW,322,3.0,7.0,92,0.00,,,0.28,,2013-09-27 17:52:00,
2013-09-27 13:13:00,51.0,49.0,29.80,North,356,3.0,9.0,93,0.00,,,0.28,,2013-09-27 18:13:00,
2013-09-27 13:21:00,51.0,49.0,29.80,NE,40,3.0,9.0,93,0.00,,,0.28,,2013-09-27 18:21:00,
2013-09-27 13:43:00,51.0,49.0,29.80,North,9,4.0,7.0,93,0.00,,,0.28,,2013-09-27 18:43:00,
2013-09-27 13:52:00,51.0,49.0,29.80,NW,321,3.0,7.0,94,0.00,,,0.28,,2013-09-27 18:52:00,
2013-09-27 14:12:00,51.0,49.0,29.79,NNW,332,4.0,9.0,94,0.00,,,0.28,,2013-09-27 19:12:00,
2013-09-27 14:22:00,51.0,49.0,29.79,WNW,301,3.0,8.0,94,0.00,,,0.28,,2013-09-27 19:22:00,
2013-09-27 14:42:00,51.0,49.0,29.79,NNW,340,3.0,7.0,94,0.00,,,0.28,,2013-09-27 19:42:00,
2013-09-27 14:53:00,51.0,49.0,29.79,NW,316,3.0,7.0,94,0.00,,,0.28,,2013-09-27 19:53:00,
2013-09-27 15:12:00,51.0,49.0,29.78,NNE,25,4.0,8.0,94,0.01,,,0.28,,2013-09-27 20:12:00,
2013-09-27 15:22:00,51.0,50.0,29.79,NNW,347,2.0,6.0,95,0.02,,,0.30,,2013-09-27 20:22:00,
2013-09-27 15:43:00,51.0,50.0,29.78,North,6,3.0,5.0,95,0.05,,,0.33,,2013-09-27 20:43:00,
2013-09-27 15:52:00,51.0,50.0,29.79,NW,318,1.0,5.0,95,0.06,,,0.34,,2013-09-27 20:52:00,
2013-09-27 16:12:00,51.0,50.0,29.80,NNW,330,2.0,5.0,95,0.05,,,0.34,,2013-09-27 21:12:00,
2013-09-27 16:22:00,51.0,50.0,29.78,North,11,2.0,5.0,95,0.03,,,0.34,,2013-09-27 21:22:00,
2013-09-27 16:44:00,51.0,50.0,29.77,NE,47,4.0,7.0,95,0.01,,,0.34,,2013-09-27 21:44:00,
2013-09-27 16:54:00,52.0,51.0,29.79,NNW,340,1.0,6.0,95,0.00,,,0.34,,2013-09-27 21:54:00,
2013-09-27 17:14:00,52.0,51.0,29.80,NNE,20,1.0,3.0,95,0.00,,,0.34,,2013-09-27 22:14:00,
2013-09-27 17:24:00,52.0,51.0,29.80,WNW,295,1.0,4.0,95,0.00,,,0.34,,2013-09-27 22:24:00,
2013-09-27 17:43:00,52.0,51.0,29.80,NW,305,2.0,5.0,95,0.00,,,0.34,,2013-09-27 22:43:00,
2013-09-27 17:53:00,52.0,51.0,29.80,NNW,330,1.0,4.0,95,0.00,,,0.34,,2013-09-27 22:53:00,
2013-09-27 18:12:00,52.0,51.0,29.80,North,356,0.0,2.0,95,0.00,,,0.34,,2013-09-27 23:12:00,
2013-09-27 18:22:00,52.0,50.0,29.80,NW,316,1.0,3.0,94,0.00,,,0.34,,2013-09-27 23:22:00,
2013-09-27 18:43:00,52.0,50.0,29.80,NNW,340,1.0,3.0,94,0.00,,,0.34,,2013-09-27 23:43:00,
2013-09-27 18:53:00,52.0,50.0,29.80,NNW,330,1.0,4.0,94,0.00,,,0.34,,2013-09-27 23:53:00,
2013-09-27 19:12:00,52.0,50.0,29.79,NNW,327,0.0,2.0,94,0.00,,,0.34,,2013-09-28 00:12:00,
2013-09-27 19:22:00,53.0,51.0,29.79,NW,313,0.0,1.0,94,0.00,,,0.34,,2013-09-28 00:22:00,
2013-09-27 19:42:00,53.0,51.0,29.79,NW,314,0.0,0.0,94,0.00,,,0.34,,2013-09-28 00:42:00,
2013-09-27 19:52:00,53.0,51.0,29.79,NW,313,0.0,0.0,94,0.00,,,0.34,,2013-09-28 00:52:00,
2013-09-27 20:12:00,53.0,52.0,29.80,SW,221,0.0,1.0,95,0.00,,,0.34,,2013-09-28 01:12:00,
2013-09-27 20:22:00,53.0,52.0,29.80,WSW,239,0.0,0.0,95,0.00,,,0.34,,2013-09-28 01:22:00,
2013-09-27 20:42:00,53.0,52.0,29.80,WSW,255,0.0,1.0,95,0.00,,,0.34,,2013-09-28 01:42:00,
2013-09-27 20:52:00,53.0,52.0,29.81,SW,234,0.0,1.0,95,0.00,,,0.34,,2013-09-28 01:52:00,
2013-09-27 21:12:00,53.0,52.0,29.81,WSW,255,0.0,2.0,95,0.00,,,0.34,,2013-09-28 02:12:00,
2013-09-27 21:22:00,53.0,52.0,29.82,WSW,242,0.0,1.0,96,0.00,,,0.34,,2013-09-28 02:22:00,
2013-09-27 21:42:00,53.0,52.0,29.83,SW,232,1.0,3.0,95,0.00,,,0.34,,2013-09-28 02:42:00,
2013-09-27 21:53:00,53.0,52.0,29.84,WSW,250,1.0,2.0,95,0.00,,,0.34,,2013-09-28 02:53:00,
2013-09-27 22:12:00,53.0,52.0,29.84,WSW,250,1.0,3.0,95,0.00,,,0.34,,2013-09-28 03:12:00,
2013-09-27 22:22:00,53.0,52.0,29.85,WSW,245,3.0,5.0,95,0.00,,,0.34,,2013-09-28 03:22:00,
2013-09-27 22:45:00,53.0,51.0,29.83,West,280,1.0,2.0,94,0.00,,,0.34,,2013-09-28 03:45:00,
2013-09-27 22:55:00,53.0,51.0,29.81,NNW,346,0.0,5.0,94,0.00,,,0.34,,2013-09-28 03:55:00,
2013-09-27 23:13:00,53.0,51.0,29.83,West,274,0.0,0.0,94,0.00,,,0.34,,2013-09-28 04:13:00,
2013-09-27 23:25:00,53.0,52.0,29.84,West,278,0.0,2.0,95,0.00,,,0.34,,2013-09-28 04:25:00,
2013-09-27 23:43:00,53.0,52.0,29.83,WNW,295,0.0,1.0,95,0.00,,,0.34,,2013-09-28 04:43:00,
2013-09-27 23:54:00,53.0,52.0,29.82,WNW,291,1.0,3.0,95,0.00,,,0.34,,2013-09-28 04:54:00,